Volver al catálogo

FEDSAT

ActivoCienciaSSO
NORAD 27598·PAYLOAD·🇦🇺 Australia

Lanzado Dec 14, 2002 desde Tanegashima Space Center

Loading…

Próximos Pases (próximas 24 horas)

TLE

ActualizadoSource: Space-Track

Época: Sep 14, 2026, 09:33 UTC

1 27598U 02056B   26257.39803639  .00000059  00000-0  40723-4 0  9991
2 27598  98.8715 232.4305 0010038  78.9008 281.3301 14.29750972238506

Sigue FEDSAT en tiempo real con AllMySat

Download on the App Store